COSMOS 1691 DEB, 16269

Orbit data source: Space-Track

COSMOS 1691 DEB, 16269 is space debris in LEO originally from a launch on Wed, 09 Oct 1985 UTC launched from the Plesetsk Missile And Space Complex (PKMTR). Debris objects in space refer to the collection of defunct objects orbiting the Earth. Examples of debris include non-operational satellites, rocket bodies, and fragments generated from explosions, collisions, or faulty payload assembly.

Loading next visibility...
Identifier
16269, 1985-094N
Orbit
LEO
Country
Flag of CISCIS
Related business
Manufacturer
Unknown
Mission
Spacecraft
Bus & Motor
Unknown
Mass
Unknown
Launch date (UTC)
1985-10-09 (40 years ago)
Launch vehicle
Unknown
Launch site
Plesetsk Missile And Space Complex (PKMTR)
Object type
Payload
Rocket body
Debris
Shape & HBR
Unknown shape, 0.2 m
Radar Cross Section
Small (<0.1 m²)

Expand to show TLE details & history
Last TLE update: 15 hours ago

TLE from 15 hours ago
0 COSMOS 1691 DEB
1 16269U 85094N   25294.98266006  .00000038  00000-0  15550-3 0  9999
2 16269  82.6188 102.2900 0010982 299.1667 190.8881 12.62275089843577
Epoch: 2025-10-21T23:35Z
TLE epoch observation values (Epoch: 2025-10-21T23:35:01.829Z)
Latitude
49.4978°
Longitude
-110.81049°
Altitude
1,429.731 km
Speed
7.147 km/s
True Right ascension
18h 14m 26s
True Declination
49° 20' 33"
Sunlit
Object was in daylight at epoch
Visualization orbit readout
Latitude
Unknown
Longitude
Unknown
Altitude
Unknown
Speed
Unknown
Apparent Right ascension
Unknown
Apparent Declination
Unknown
Sunlit
N/A
Visualization observer readout
Local Sidereal Time
10:03:48
Azimuth
Unknown
Elevation
Unknown
Doppler factor
Unknown
Orbital elements
Apogee altitude
1,419.441 km
Perigee altitude
1,402.333 km
Semi-major axis
7,789.024 km
Eccentricity
0.0011
Inclination
82.6188°
RAAN
102.29°
Arg. of periapsis
299.1667°
True anomaly
190.86436°
Mean anomaly
190.8881°
Eccentric anomaly
190.87623°
Mean motion
3.15732 °/min
Orbital period
114.02 mins
BSTAR
0.0001555
Loading maneuver chart data...
Computing Atmospheric mass density...
Loading historical data...
Loading historical data...
Loading historical data...
Loading historical data...
Loading historical data...
Loading historical data...
Loading historical data...

Documentation

Showing up to 5 results
|